Location: G�kdere
(37.0328°N, 30.9000°E)
Time: 22:37:45
(UTC+00:00)

CZ-3A R/B - Pass Details

Date: 03 March 2021
Orbit: 342 x 36833 km, 25.0° (Epoch: 17 April)

Event Time Altitude Azimuth Distance (km) Brightness Sun altitude
Rises 17:46:33 0° 258° (WSW) 11,168 9.6 -23.5°
Reaches altitude 10° 17:59:41 10° 251° (WSW) 6,045 7.8 -26.0°
Maximum altitude 18:09:49 26° 199° (SSW) 1,839 4.4 -28.0°
Enters shadow 18:10:27 26° 188° (S) 1,706 4.2 -28.1°
